H1 CPF 2 NER 2024 10 28 9 302 01 glonass146 H2 2216101 9146 54377 2024 10 28 0 0 0 2024 10 31 23 45 0 900 1 1 0 0 0 1 H9 10 0 60611 0.00000 0 2268674.898 -10997809.725 22908758.945 10 0 60611 900.00000 0 5037688.893 -11325460.846 22296296.943 10 0 60611 1800.00000 0 7675283.873 -11837005.054 21250945.309 10 0 60611 2700.00000 0 10119223.737 -12503250.781 19792851.429 10 0 60611 3600.00000 0 12314665.690 -13284958.445 17950193.582 10 0 60611 4500.00000 0 14216206.007 -14134540.402 15758646.054 10 0 60611 5400.00000 0 15789538.014 -14998132.666 13260696.520 10 0 60611 6300.00000 0 17012653.085 -15817951.772 10504827.902 10 0 60611 7200.00000 0 17876534.202 -16534837.644 7544579.882 10 0 60611 8100.00000 0 18385312.822 -17090874.796 4437507.878 10 0 60611 9000.00000 0 18555882.572 -17431980.554 1244059.813 10 0 60611 9900.00000 0 18416986.089 -17510349.670 -1973607.002 10 0 60611 10800.00000 0 18007814.013 -17286650.537 -5152845.013 10 0 60611 11700.00000 0 17376176.157 -16731878.654 -8231746.740 10 0 60611 12600.00000 0 16576323.092 -15828787.396 -11150361.017 10 0 60611 13500.00000 0 15666511.489 -14572834.231 -13851870.233 10 0 60611 14400.00000 0 14706417.363 -12972601.224 -16283704.552 10 0 60611 15300.00000 0 13754507.781 -11049671.152 -18398570.556 10 0 60611 16200.00000 0 12865483.053 -8837963.836 -20155373.780 10 0 60611 17100.00000 0 12087898.115 -6382560.135 -21520017.097 10 0 60611 18000.00000 0 11462063.726 -3738062.730 -22466059.612 10 0 60611 18900.00000 0 11018315.878 -966562.152 -22975223.826 10 0 60611 19800.00000 0 10775725.847 1864707.111 -23037741.969 10 0 60611 20700.00000 0 10741304.396 4685922.867 -22652535.658 10 0 60611 21600.00000 0 10909732.631 7427337.790 -21827226.266 10 0 60611 22500.00000 0 11263629.736 10021938.094 -20577976.656 10 0 60611 23400.00000 0 11774345.259 12407988.569 -18929168.016 10 0 60611 24300.00000 0 12403241.633 14531359.246 -16912918.618 10 0 60611 25200.00000 0 13103412.176 16347538.224 -14568454.148 10 0 60611 26100.00000 0 13821761.678 17823248.336 -11941342.078 10 0 60611 27000.00000 0 14501361.588 18937601.910 -9082604.965 10 0 60611 27900.00000 0 15083980.449 19682747.149 -6047729.887 10 0 60611 28800.00000 0 15512682.943 20063980.760 -2895593.167 10 0 60611 29700.00000 0 15734388.146 20099323.688 312678.866 10 0 60611 30600.00000 0 15702279.321 19818579.110 3514891.150 10 0 60611 31500.00000 0 15377963.877 19261913.322 6648980.470 10 0 60611 32400.00000 0 14733292.561 18478019.896 9654212.331 10 0 60611 33300.00000 0 13751761.202 17521944.725 12472351.328 10 0 60611 34200.00000 0 12429435.729 16452663.461 15048782.733 10 0 60611 35100.00000 0 10775360.981 15330513.012 17333564.163 10 0 60611 36000.00000 0 8811435.205 14214584.570 19282387.583 10 0 60611 36900.00000 0 6571754.235 13160187.133 20857433.656 10 0 60611 37800.00000 0 4101451.164 12216487.348 22028102.508 10 0 60611 38700.00000 0 1455078.140 11424424.152 22771607.259 10 0 60611 39600.00000 0 -1305404.267 10814985.258 23073419.110 10 0 60611 40500.00000 0 -4112948.397 10407917.590 22927555.375 10 0 60611 41400.00000 0 -6897956.952 10210925.795 22336704.600 10 0 60611 42300.00000 0 -9590932.744 10219392.878 21312185.704 10 0 60611 43200.00000 0 -12125131.989 10416635.262 19873741.062 10 0 60611 44100.00000 0 -14439111.838 10774682.367 18049166.355 10 0 60611 45000.00000 0 -16479066.677 11255548.795 15873783.185 10 0 60611 45900.00000 0 -18200856.065 11812946.311 13389763.444 10 0 60611 46800.00000 0 -19571639.593 12394364.075 10645317.486 10 0 60611 47700.00000 0 -20571049.939 12943429.538 7693761.104 10 0 60611 48600.00000 0 -21191854.776 13402450.189 4592479.066 10 0 60611 49500.00000 0 -21440079.366 13715028.069 1401805.359 10 0 60611 50400.00000 0 -21334584.485 13828635.380 -1816157.608 10 0 60611 51300.00000 0 -20906117.809 13697040.911 -4998756.998 10 0 60611 52200.00000 0 -20195879.069 13282482.956 -8084019.966 10 0 60611 53100.00000 0 -19253660.433 12557495.152 -11011871.208 10 0 60611 54000.00000 0 -18135641.684 11506306.541 -13725312.700 10 0 60611 54900.00000 0 -16901934.355 10125755.209 -16171541.522 10 0 60611 55800.00000 0 -15613979.703 8425675.834 -18302983.154 10 0 60611 56700.00000 0 -14331911.315 6428743.911 -20078219.610 10 0 60611 57600.00000 0 -13111994.293 4169782.595 -21462794.225 10 0 60611 58500.00000 0 -12004249.268 1694560.817 -22429877.648 10 0 60611 59400.00000 0 -11050361.244 -941867.212 -22960782.644 10 0 60611 60300.00000 0 -10281960.704 -3677211.962 -23045318.450 10 0 60611 61200.00000 0 -9719348.414 -6444302.597 -22681978.669 10 0 60611 62100.00000 0 -9370716.339 -9173647.296 -21877959.970 10 0 60611 63000.00000 0 -9231896.018 -11796093.745 -20649012.035 10 0 60611 63900.00000 0 -9286643.563 -14245479.723 -19019122.390 10 0 60611 64800.00000 0 -9507447.911 -16461164.399 -17020042.750 10 0 60611 65700.00000 0 -9856827.046 -18390336.064 -14690666.433 10 0 60611 66600.00000 0 -10289056.661 -19990001.424 -12076269.120 10 0 60611 67500.00000 0 -10752257.637 -21228574.943 -9227627.770 10 0 60611 68400.00000 0 -11190753.870 -22087003.351 -6200034.754 10 0 60611 69300.00000 0 -11547600.742 -22559379.813 -3052226.296 10 0 60611 70200.00000 0 -11767177.488 -22653023.468 154754.143 10 0 60611 71100.00000 0 -11797734.121 -22388022.266 3358735.613 10 0 60611 72000.00000 0 -11593785.585 -21796259.341 6497619.876 10 0 60611 72900.00000 0 -11118252.208 -20919964.563 9510579.034 10 0 60611 73800.00000 0 -10344256.213 -19809852.532 12339227.755 10 0 60611 74700.00000 0 -9256498.394 -18522925.378 14928747.790 10 0 60611 75600.00000 0 -7852156.560 -17120032.420 17228943.560 10 0 60611 76500.00000 0 -6141267.178 -15663288.668 19195209.012 10 0 60611 77400.00000 0 -4146573.037 -14213459.813 20789387.658 10 0 60611 78300.00000 0 -1902841.797 -12827422.553 21980509.754 10 0 60611 79200.00000 0 544317.909 -11555805.880 22745392.885 10 0 60611 80100.00000 0 3140095.434 -10440911.407 23069094.578 10 0 60611 81000.00000 0 5822505.938 -9514999.272 22945208.238 10 0 60611 81900.00000 0 8524724.742 -8799011.058 22375996.387 10 0 60611 82800.00000 0 11177632.955 -8301783.182 21372358.004 10 0 60611 83700.00000 0 13712470.079 -8019783.925 19953629.715 10 0 60611 84600.00000 0 16063484.444 -7937385.485 18147223.548 10 0 60611 85500.00000 0 18170471.818 -8027660.208 15988107.042 10 0 60612 0.00000 0 19981096.555 -8253667.933 13518134.826 10 0 60612 900.00000 0 21452899.220 -8570180.825 10785242.175 10 0 60612 1800.00000 0 22554903.990 -8925772.731 7842518.811 10 0 60612 2700.00000 0 23268761.265 -9265185.100 4747176.132 10 0 60612 3600.00000 0 23589374.466 -9531868.591 1559431.180 10 0 60612 4500.00000 0 23524985.309 -9670592.006 -1658671.713 10 0 60612 5400.00000 0 23096713.507 -9630006.772 -4844477.703 10 0 60612 6300.00000 0 22337570.445 -9365056.811 -7935951.827 10 0 60612 7200.00000 0 21290989.010 -8839130.192 -10872897.749 10 0 60612 8100.00000 0 20008932.185 -8025859.800 -13598139.894 10 0 60612 9000.00000 0 18549661.204 -6910495.374 -16058644.857 10 0 60612 9900.00000 0 16975258.416 -5490787.663 -18206559.286 10 0 60612 10800.00000 0 15349010.177 -3777346.317 -20000143.601 10 0 60612 11700.00000 0 13732760.774 -1793455.641 -21404583.183 10 0 60612 12600.00000 0 12184349.171 425644.588 -22392661.454 10 0 60612 13500.00000 0 10755236.325 2833983.493 -22945282.295 10 0 60612 14400.00000 0 9488422.333 5376537.663 -23051832.414 10 0 60612 15300.00000 0 8416739.991 7991294.025 -22710377.477 10 0 60612 16200.00000 0 7561595.116 10611611.190 -21927689.114 10 0 60612 17100.00000 0 6932204.963 13168781.256 -20719103.096 10 0 60612 18000.00000 0 6525365.027 15594685.828 -19108212.160 10 0 60612 18900.00000 0 6325752.272 17824436.326 -17126399.962 10 0 60612 19800.00000 0 6306750.402 19798889.487 -14812225.556 10 0 60612 20700.00000 0 6431761.009 21466934.174 -12210670.577 10 0 60612 21600.00000 0 6655944.191 22787455.300 -9372263.779 10 0 60612 22500.00000 0 6928314.368 23730894.066 -6352099.914 10 0 60612 23400.00000 0 7194102.304 24280340.554 -3208771.920 10 0 60612 24300.00000 0 7397283.307 24432114.179 -3237.033 10 0 60612 25200.00000 0 7483164.717 24195808.805 3202361.356 10 0 60612 26100.00000 0 7400923.469 23593801.576 6345893.417 10 0 60612 27000.00000 0 7105986.655 22660246.787 9366441.155 10 0 60612 27900.00000 0 6562154.675 21439597.426 12205472.415 10 0 60612 28800.00000 0 5743377.340 19984716.566 14807968.245 10 0 60612 29700.00000 0 4635107.828 18354657.606 17123482.366 10 0 60612 30600.00000 0 3235176.883 16612205.962 19107112.849 10 0 60612 31500.00000 0 1554149.598 14821284.489 20720367.803 10 0 60612 32400.00000 0 -384851.542 13044330.376 21931908.972 10 0 60612 33300.00000 0 -2546851.621 11339752.292 22718159.319 10 0 60612 34200.00000 0 -4886228.744 9759573.217 23063763.154 10 0 60612 35100.00000 0 -7348371.787 8347356.630 22961889.931 10 0 60612 36000.00000 0 -9871723.494 7136502.115 22414375.574 10 0 60612 36900.00000 0 -12390125.810 6148981.238 21431698.002 10 0 60612 37800.00000 0 -14835371.570 5394566.417 20032786.421 10 0 60612 38700.00000 0 -17139857.654 4870585.108 18244666.996 10 0 60612 39600.00000 0 -19239229.971 4562209.831 16101950.523 10 0 60612 40500.00000 0 -21074910.398 4443272.106 13646170.835 10 0 60612 41400.00000 0 -22596400.087 4477566.272 10924985.658 10 0 60612 42300.00000 0 -23763262.459 4620588.287 7991254.707 10 0 60612 43200.00000 0 -24546702.164 4821635.961 4902012.455 10 0 60612 44100.00000 0 -24930672.934 5026181.319 1717355.527 10 0 60612 45000.00000 0 -24912467.077 5178413.867 -1500733.160 10 0 60612 45900.00000 0 -24502761.156 5223845.865 -4689599.885 10 0 60612 46800.00000 0 -23725115.727 5111867.769 -7787150.451 10 0 60612 47700.00000 0 -22614950.275 4798143.974 -10733070.119 10 0 60612 48600.00000 0 -21218036.968 4246745.757 -13470008.120 10 0 60612 49500.00000 0 -19588577.379 3431929.587 -15944702.558 10 0 60612 50400.00000 0 -17786943.983 2339484.202 -18109022.884 10 0 60612 51300.00000 0 -15877182.425 967588.429 -19920909.137 10 0 60612 52200.00000 0 -13924380.336 -672857.320 -21345189.488 10 0 60612 53100.00000 0 -11992013.790 -2558440.480 -22354260.383 10 0 60612 54000.00000 0 -10139382.868 -4653978.333 -22928616.602 10 0 60612 54900.00000 0 -8419243.586 -6913761.825 -23057221.643 10 0 60612 55800.00000 0 -6875734.674 -9283249.307 -22737712.142 10 0 60612 56700.00000 0 -5542684.851 -11701139.702 -21976433.232 10 0 60612 57600.00000 0 -4442369.935 -14101738.792 -20788305.014 10 0 60612 58500.00000 0 -3584770.083 -16417520.300 -19196523.425 10 0 60612 59400.00000 0 -2967356.337 -18581775.450 -17232101.856 10 0 60612 60300.00000 0 -2575413.489 -20531241.185 -14933262.776 10 0 60612 61200.00000 0 -2382883.910 -22208598.132 -12344691.370 10 0 60612 62100.00000 0 -2353695.200 -23564734.950 -9516665.778 10 0 60612 63000.00000 0 -2443514.501 -24560685.434 -6504080.749 10 0 60612 63900.00000 0 -2601854.485 -25169158.350 -3365383.622 10 0 60612 64800.00000 0 -2774441.513 -25375597.002 -161443.166 10 0 60612 65700.00000 0 -2905745.611 -25178725.040 3045626.956 10 0 60612 66600.00000 0 -2941565.238 -24590556.436 6193667.418 10 0 60612 67500.00000 0 -2831557.699 -23635869.803 9221672.178 10 0 60612 68400.00000 0 -2531608.410 -22351169.456 12070964.239 10 0 60612 69300.00000 0 -2005939.047 -20783176.849 14686325.864 10 0 60612 70200.00000 0 -1228865.585 -18986915.385 17017061.871 10 0 60612 71100.00000 0 -186131.795 -17023468.295 19017976.086 10 0 60612 72000.00000 0 1124238.545 -14957502.640 20650242.650 10 0 60612 72900.00000 0 2691607.587 -12854662.013 21882155.950 10 0 60612 73800.00000 0 4492922.936 -10778935.753 22689745.196 10 0 60612 74700.00000 0 6493444.144 -8790113.432 23057242.028 10 0 60612 75600.00000 0 8647967.832 -6941429.783 22977392.176 10 0 60612 76500.00000 0 10902502.380 -5277497.435 22451604.885 10 0 60612 77400.00000 0 13196324.398 -3832613.071 21489936.621 10 0 60612 78300.00000 0 15464333.089 -2629507.253 20110908.506 10 0 60612 79200.00000 0 17639605.916 -1678589.954 18341159.901 10 0 60612 80100.00000 0 19656050.000 -977723.336 16214943.653 10 0 60612 81000.00000 0 21451039.182 -512531.315 13773471.531 10 0 60612 81900.00000 0 22967926.632 -257232.978 11064121.498 10 0 60612 82800.00000 0 24158327.481 -175964.737 8139521.400 10 0 60612 83700.00000 0 24984075.004 -224535.247 5056526.408 10 0 60612 84600.00000 0 25418767.533 -352538.456 1875110.091 10 0 60612 85500.00000 0 25448839.880 -505734.679 -1342808.905 10 0 60613 0.00000 0 25074113.316 -628597.739 -4534580.684 10 0 60613 900.00000 0 24307800.176 -666918.968 -7638055.417 10 0 60613 1800.00000 0 23175963.032 -570355.997 -10592802.616 10 0 60613 2700.00000 0 21716450.615 -294817.016 -13341299.080 10 0 60613 3600.00000 0 19977355.964 195422.247 -15830056.968 10 0 60613 4500.00000 0 18015062.150 925959.720 -18010670.805 10 0 60613 5400.00000 0 15891958.492 1910941.884 -19840762.236 10 0 60613 6300.00000 0 13673923.839 3152229.275 -21284803.938 10 0 60613 7200.00000 0 11427683.102 4639088.369 -22314806.832 10 0 60613 8100.00000 0 9218148.025 6348423.299 -22910857.755 10 0 60613 9000.00000 0 7105853.385 8245537.947 -23061497.860 10 0 60613 9900.00000 0 5144595.306 10285396.619 -22763935.277 10 0 60613 10800.00000 0 3379369.384 12414330.652 -22024088.803 10 0 60613 11700.00000 0 1844693.367 14572119.762 -20856462.621 10 0 60613 12600.00000 0 563382.765 16694361.345 -19283855.199 10 0 60613 13500.00000 0 -454171.388 18715029.113 -17336908.556 10 0 60613 14400.00000 0 -1210194.474 20569114.648 -15053507.029 10 0 60613 15300.00000 0 -1719183.948 22195242.056 -12478037.390 10 0 60613 16200.00000 0 -2007045.062 23538147.118 -9660524.802 10 0 60613 17100.00000 0 -2109744.708 24550918.000 -6655661.287 10 0 60613 18000.00000 0 -2071541.373 25196904.498 -3521745.564 10 0 60613 18900.00000 0 -1942866.858 25451216.657 -319554.681 10 0 60613 19800.00000 0 -1777949.815 25301750.658 2888830.819 10 0 60613 20700.00000 0 -1632281.783 24749699.621 6041225.568 10 0 60613 21600.00000 0 -1560032.911 23809528.304 9076538.879 10 0 60613 22500.00000 0 -1611526.415 22508413.045 11935952.197 10 0 60613 23400.00000 0 -1830878.348 20885170.358 14564052.074 10 0 60613 24300.00000 0 -2253902.167 18988718.809 16909897.246 10 0 60613 25200.00000 0 -2906366.549 16876137.892 18927999.821 10 0 60613 26100.00000 0 -3802680.160 14610404.284 20579202.147 10 0 60613 27000.00000 0 -4945059.377 12257898.938 21831433.070 10 0 60613 27900.00000 0 -6323214.972 9885787.837 22660329.446 10 0 60613 28800.00000 0 -7914572.349 7559384.372 23049711.193 10 0 60613 29700.00000 0 -9685017.810 5339602.043 22991900.762 10 0 60613 30600.00000 0 -11590141.646 3280602.470 22487880.621 10 0 60613 31500.00000 0 -13576928.047 1427735.838 21547285.113 10 0 60613 32400.00000 0 -15585823.179 -184141.071 20188225.997 10 0 60613 33300.00000 0 -17553096.714 -1531899.539 18436953.976 10 0 60613 34200.00000 0 -19413399.394 -2604874.904 16327361.522 10 0 60613 35100.00000 0 -21102410.489 -3405073.195 13900335.449 10 0 60613 36000.00000 0 -22559464.651 -3946839.829 11202970.665 10 0 60613 36900.00000 0 -23730047.773 -4256004.341 8287659.566 10 0 60613 37800.00000 0 -24568056.572 -4368537.446 5211074.298 10 0 60613 38700.00000 0 -25037725.964 -4328777.528 2033061.603 10 0 60613 39600.00000 0 -25115141.889 -4187302.167 -1184527.870 10 0 60613 40500.00000 0 -24789274.917 -3998535.819 -4379052.190 10 0 60613 41400.00000 0 -24062489.856 -3818196.194 -7488308.113 10 0 60613 42300.00000 0 -22950509.236 -3700689.004 -10451753.111 10 0 60613 43200.00000 0 -21481831.897 -3696563.042 -13211694.399 10 0 60613 44100.00000 0 -19696630.893 -3850134.867 -15714420.693 10 0 60613 45000.00000 0 -17645177.392 -4197385.071 -17911253.687 10 0 60613 45900.00000 0 -15385857.226 -4764216.270 -19759498.249 10 0 60613 46800.00000 0 -12982863.894 -5565147.321 -21223272.638 10 0 60613 47700.00000 0 -10503665.168 -6602499.473 -22274202.738 10 0 60613 48600.00000 0 -8016349.676 -7866109.110 -22891967.330 10 0 60613 49500.00000 0 -5586964.331 -9333579.355 -23064684.527 10 0 60613 50400.00000 0 -3276953.453 -10971059.996 -22789132.732 10 0 60613 51300.00000 0 -1140805.630 -12734523.007 -22070802.730 10 0 60613 52200.00000 0 775994.754 -14571480.218 -20923780.743 10 0 60613 53100.00000 0 2438627.422 -16423071.231 -19370465.434 10 0 60613 54000.00000 0 3824140.146 -18226434.354 -17441124.913 10 0 60613 54900.00000 0 4922148.500 -19917261.579 -15173302.692 10 0 60613 55800.00000 0 5735004.284 -21432431.058 -12611084.369 10 0 60613 56700.00000 0 6277427.639 -22712607.296 -9804239.326 10 0 60613 57600.00000 0 6575620.231 -23704700.747 -6807254.082 10 0 60613 58500.00000 0 6665898.405 -24364084.280 -3678276.013 10 0 60613 59400.00000 0 6592905.202 -24656474.205 -477987.819 10 0 60613 60300.00000 0 6407477.564 -24559397.485 2731565.582 10 0 60613 61200.00000 0 6164259.296 -24063184.055 5888175.137 10 0 60613 62100.00000 0 5919160.900 -23171442.895 8930667.706 10 0 60613 63000.00000 0 5726773.524 -21901002.033 11800085.184 10 0 60613 63900.00000 0 5637846.114 -20281314.836 14440820.211 10 0 60613 64800.00000 0 5696932.046 -18353357.084 16801687.020 10 0 60613 65700.00000 0 5940304.320 -16168060.261 18836907.306 10 0 60613 66600.00000 0 6394227.223 -13784345.634 20506992.657 10 0 60613 67500.00000 0 7073657.451 -11266839.997 21779507.096 10 0 60613 68400.00000 0 7981429.968 -8683366.979 22629695.531 10 0 60613 69300.00000 0 9107963.745 -6102317.042 23040966.246 10 0 60613 70200.00000 0 10431501.115 -3590004.227 23005218.208 10 0 60613 71100.00000 0 11918872.330 -1208118.334 22523006.623 10 0 60613 72000.00000 0 13526755.127 988622.528 21603542.974 10 0 60613 72900.00000 0 15203378.388 2954522.193 20264528.717 10 0 60613 73800.00000 0 16890600.326 4654574.700 18531824.747 10 0 60613 74700.00000 0 18526275.532 6065681.339 16438961.838 10 0 60613 75600.00000 0 20046812.747 7177365.829 14026500.330 10 0 60613 76500.00000 0 21389816.593 7991957.824 11341250.363 10 0 60613 77400.00000 0 22496702.281 8524237.073 8435366.978 10 0 60613 78300.00000 0 23315172.984 8800553.495 5365337.172 10 0 60613 79200.00000 0 23801454.685 8857460.538 2190878.530 10 0 60613 80100.00000 0 23922193.216 8739920.166 -1026228.751 10 0 60613 81000.00000 0 23655932.138 8499156.168 -4223353.010 10 0 60613 81900.00000 0 22994107.855 8190247.827 -7338240.783 10 0 60613 82800.00000 0 21941519.056 7869567.242 -10310239.765 10 0 60613 83700.00000 0 20516249.729 7592170.285 -13081490.017 10 0 60613 84600.00000 0 18749048.548 7409253.172 -15598059.063 10 0 60613 85500.00000 0 16682190.599 7365783.686 -17810997.813 10 0 60614 0.00000 0 14367869.517 7498408.384 -19677296.047 10 0 60614 900.00000 0 11866186.570 7833725.210 -21160719.580 10 0 60614 1800.00000 0 9242824.393 8386994.795 -22232510.531 10 0 60614 2700.00000 0 6566498.830 9161345.256 -22871940.890 10 0 60614 3600.00000 0 3906298.397 10147503.884 -23066706.779 10 0 60614 4500.00000 0 1329020.953 11324066.900 -22813157.666 10 0 60614 5400.00000 0 -1103381.832 12658295.663 -22116356.785 10 0 60614 6300.00000 0 -3336146.739 14107405.699 -20989972.480 10 0 60614 7200.00000 0 -5323731.770 15620294.229 -19456003.267 10 0 60614 8100.00000 0 -7031456.404 17139633.655 -17544342.549 10 0 60614 9000.00000 0 -8436682.864 18604243.284 -15292191.786 10 0 60614 9900.00000 0 -9529491.139 19951639.940 -12743333.736 10 0 60614 10800.00000 0 -10312821.616 21120660.795 -9947279.957 10 0 60614 11700.00000 0 -10802081.404 22054048.732 -6958309.087 10 0 60614 12600.00000 0 -11024232.649 22700892.128 -3834414.503 10 0 60614 13500.00000 0 -11016402.743 23018817.068 -636181.685 10 0 60614 14400.00000 0 -10824076.143 22975840.321 2574383.113 10 0 60614 15300.00000 0 -10498944.825 22551805.583 5735050.284 10 0 60614 16200.00000 0 -10096508.554 21739342.871 8784567.411 10 0 60614 17100.00000 0 -9673526.387 20544310.788 11663839.995 10 0 60614 18000.00000 0 -9285426.860 18985702.906 14317069.843 10 0 60614 18900.00000 0 -8983785.890 17095021.702 16692829.626 10 0 60614 19800.00000 0 -8813978.415 14915145.443 18745053.384 10 0 60614 20700.00000 0 -8813102.482 12498734.367 20433924.460 10 0 60614 21600.00000 0 -9008263.081 9906241.396 21726644.280 10 0 60614 22500.00000 0 -9415288.108 7203608.796 22598067.678 10 0 60614 23400.00000 0 -10037930.918 4459745.164 23031192.780 10 0 60614 24300.00000 0 -10867593.823 1743886.127 23017496.078 10 0 60614 25200.00000 0 -11883585.340 -877053.023 22557106.012 10 0 60614 26100.00000 0 -13053901.851 -3341023.954 21658811.150 10 0 60614 27000.00000 0 -14336502.494 -5593186.342 20339901.989 10 0 60614 27900.00000 0 -15681025.413 -7587946.697 18625848.372 10 0 60614 28800.00000 0 -17030874.780 -9290610.504 16549817.550 10 0 60614 29700.00000 0 -18325592.086 -10678579.005 14152041.036 10 0 60614 30600.00000 0 -19503412.740 -11742040.667 11479041.381 10 0 60614 31500.00000 0 -20503900.658 -12484128.458 8582733.065 10 0 60614 32400.00000 0 -21270549.621 -12920536.428 5519414.474 10 0 60614 33300.00000 0 -21753240.980 -13078611.918 2348670.404 10 0 60614 34200.00000 0 -21910452.941 -12995962.170 -867793.134 10 0 60614 35100.00000 0 -21711126.762 -12718634.828 -4067358.470 10 0 60614 36000.00000 0 -21136109.663 -12298950.281 -7187725.570 10 0 60614 36900.00000 0 -20179112.218 -11793078.809 -10168135.896 10 0 60614 37800.00000 0 -18847138.662 -11258466.486 -12950565.703 10 0 60614 38700.00000 0 -17160371.159 -10751220.159 -15480864.399 10 0 60614 39600.00000 0 -15151512.236 -10323563.533 -17709814.827 10 0 60614 40500.00000 0 -12864612.861 -10021473.048 -19594094.259 10 0 60614 41400.00000 0 -10353435.307 -9882594.332 -21097117.138 10 0 60614 42300.00000 0 -7679419.521 -9934527.691 -22189743.314 10 0 60614 43200.00000 0 -4909338.222 -10193555.101 -22850838.472 10 0 60614 44100.00000 0 -2112738.628 -10663862.203 -23067676.586 10 0 60614 45000.00000 0 640722.609 -11337287.687 -22836177.410 10 0 60614 45900.00000 0 3283940.726 -12193610.066 -22160975.326 10 0 60614 46800.00000 0 5754910.434 -13201359.254 -21055319.033 10 0 60614 47700.00000 0 7999054.825 -14319118.292 -19540804.767 10 0 60614 48600.00000 0 9971240.095 -15497260.148 -17646948.789 10 0 60614 49500.00000 0 11637393.876 -16680046.358 -15410607.816 10 0 60614 50400.00000 0 12975661.559 -17807999.222 -12875258.871 10 0 60614 51300.00000 0 13977054.302 -18820447.937 -10090152.639 10 0 60614 52200.00000 0 14645563.637 -19658141.817 -7109356.697 10 0 60614 53100.00000 0 14997739.700 -20265820.975 -3990707.187 10 0 60614 54000.00000 0 15061752.491 -20594636.685 -794689.130 10 0 60614 54900.00000 0 14875976.966 -20604319.925 2416733.040 10 0 60614 55800.00000 0 14487162.567 -20265007.123 5581312.164 10 0 60614 56700.00000 0 13948264.988 -19558646.498 8637719.311 10 0 60614 57600.00000 0 13316031.863 -18479925.819 11526726.049 10 0 60614 58500.00000 0 12648444.184 -17036682.370 14192345.466 10 0 60614 59400.00000 0 12002121.079 -15249777.381 16582910.399 10 0 60614 60300.00000 0 11429796.872 -13152439.331 18652068.570 10 0 60614 61200.00000 0 10977976.270 -10789102.455 20359676.002 10 0 60614 62100.00000 0 10684865.939 -8213787.599 21672572.063 10 0 60614 63000.00000 0 10578669.241 -5488091.266 22565221.672 10 0 60614 63900.00000 0 10676315.846 -2678864.942 23020212.596 10 0 60614 64800.00000 0 10982679.922 144320.544 23028598.335 10 0 60614 65700.00000 0 11490320.411 2911821.910 22590079.756 10 0 60614 66600.00000 0 12179755.303 5556573.018 21713021.455 10 0 60614 67500.00000 0 13020259.579 8016628.305 20414301.709 10 0 60614 68400.00000 0 13971154.684 10237495.205 18718997.856 10 0 60614 69300.00000 0 14983536.579 12174159.030 16659912.021 10 0 60614 70200.00000 0 16002370.863 13792716.225 14276945.130 10 0 60614 71100.00000 0 16968867.524 15071547.867 11616330.248 10 0 60614 72000.00000 0 17823035.659 16001984.247 8729739.272 10 0 60614 72900.00000 0 18506310.216 16588432.575 5673279.775 10 0 60614 73800.00000 0 18964139.475 16847962.676 2506401.457 10 0 60614 74700.00000 0 19148422.821 16809368.193 -709266.255 10 0 60614 75600.00000 0 19019694.424 16511743.314 -3911122.128 10 0 60614 76500.00000 0 18548959.119 16002636.114 -7036821.997 10 0 60614 77400.00000 0 17719101.395 15335857.525 -10025503.425 10 0 60614 78300.00000 0 16525806.572 14569039.864 -12818981.050 10 0 60614 79200.00000 0 14977954.113 13761049.470 -15362888.180 10 0 60614 80100.00000 0 13097465.602 12969364.151 -17607741.418 10 0 60614 81000.00000 0 10918613.168 12247527.414 -19509907.008 10 0 60614 81900.00000 0 8486817.104 11642787.833 -21032449.818 10 0 60614 82800.00000 0 5856982.927 11194023.665 -22145848.555 10 0 60614 83700.00000 0 3091447.468 10930040.331 -22828563.745 10 0 60614 84600.00000 0 257619.704 10868312.230 -23067448.176 10 0 60614 85500.00000 0 -2574585.380 11014221.241 -22857992.621 99